RADUGA-1M 3 (39375 NORAD) Tracking and Keplerian Element Data

This shows tracking and keplerian element data for the satellite.

Feedback or suggestion? Click here.




ElementValue
Catalog39375
NameRADUGA-1M 3
Epoch Orbit4110
Epoch Day34.69052431
Epoch Year2025
RAAN78.5321
Inclination4.6907
Eccentricity9.6E-05
Argument of Perigee350.2614
Mean Anonmoly348.8774
Mean Motion1.00270983
Decay Rate1.56E-06
L11 39375U 13062A 25034.69052431 .00000156 00000+0 00000+0 0 9993
L22 39375 4.6907 78.5321 0000960 350.2614 348.8774 1.00270983 41104



Live tracking and technical data element details for RADUGA-1M 3 (NORAD 39375). RADUGA-1M 3 can be tracked NOW for your location showing map with azimuth and elevation plus other details from your city location.







IsCatalogInMostPopularTable: catalog: 39375, numindb: 667
Update: records affected: 1



GetName: 39375 RADUGA-1M 3

Hit Count: updated at: Fri, 18 Jul 2025 16:58:38 GMT